Hickory, NC

8:56 AM EST on January 18, 2018 (GMT -0500)
Hickory Regional

Weather History for KHKY - January, 2014

Change the Weather History Date:

Friday, January 17, 2014

  Actual Average Record
Temperature  
Mean Temperature 37 °F -  
Max Temperature 50 °F 46 °F 73 °F (1974)
Min Temperature 24 °F 26 °F -3 °F (1977)
Degree Days  
Heating Degree Days 28    
Moisture  
Dew Point 18 °F    
Average Humidity 49    
Maximum Humidity 75    
Minimum Humidity 29    
Precipitation  
Precipitation 0.00 in - - ()
Sea Level Pressure  
Sea Level Pressure 29.88 in    
Wind  
Wind Speed 4 mph (SW)    
Max Wind Speed 17 mph    
Max Gust Speed 30 mph    
Visibility 10 miles    
Events      
Averages and records for this station are not official NWS values.
T = Trace of Precipitation, MM = Missing Value Source: NWS Daily Summary

Daily Weather History Graph

Daily Weather History Graph

Search for Another Location

Airport or City:

Trip Planner

Search our weather history database for the weather conditions in past years. The results will help you decide how hot, cold, wet, or windy it might be!

Date:

Astronomy

Jan. 17, 2014 Rise Set
Actual Time 7:34 AM EST 5:37 PM EST
Civil Twilight 7:06 AM EST 6:05 PM EST
Nautical Twilight 6:35 AM EST 6:36 PM EST
Astronomical Twilight 6:04 AM EST 7:07 PM EST
Moon 7:17 PM EST (1/17) 8:05 AM EST (1/17)
Length of Visible Light 10h 58m
Length of Day
10h 03m
Full, 98% of the Moon is Illuminated
Jan 17
Full
Jan 24
Last Quarter
Jan 30
New
Feb 6
First Quarter
Feb 14
Full

Hourly Weather History & Observations

Time (EST) Temp. Windchill Dew Point Humidity Pressure Visibility Wind Dir Wind Speed Gust Speed Precip Events Conditions
12:53 AM 32.0 °F - 14.0 °F 48% 29.93 in 10.0 mi Calm Calm - N/A   Clear
1:53 AM 30.9 °F - 12.0 °F 46% 29.92 in 10.0 mi Calm Calm - N/A   Clear
2:53 AM 28.9 °F - 15.1 °F 56% 29.92 in 10.0 mi Calm Calm - N/A   Clear
3:53 AM 27.0 °F - 15.1 °F 61% 29.92 in 10.0 mi Calm Calm - N/A   Clear
4:53 AM 27.0 °F - 18.0 °F 69% 29.90 in 10.0 mi Calm Calm - N/A   Clear
5:53 AM 27.0 °F - 16.0 °F 63% 29.91 in 10.0 mi Calm Calm - N/A   Clear
6:53 AM 24.1 °F - 17.1 °F 75% 29.93 in 9.0 mi Calm Calm - N/A   Clear
7:53 AM 25.0 °F - 18.0 °F 75% 29.93 in 10.0 mi Calm Calm - N/A   Scattered Clouds
8:53 AM 30.0 °F - 17.1 °F 59% 29.94 in 10.0 mi Calm Calm - N/A   Partly Cloudy
9:53 AM 34.0 °F - 17.1 °F 50% 29.94 in 10.0 mi Calm Calm - N/A   Clear
10:53 AM 37.9 °F 32.7 °F 17.1 °F 43% 29.93 in 10.0 mi South 6.9 mph - N/A   Clear
11:53 AM 43.0 °F 40.3 °F 19.0 °F 38% 29.89 in 10.0 mi Variable 4.6 mph - N/A   Clear
12:53 PM 45.0 °F 40.1 °F 21.0 °F 39% 29.83 in 10.0 mi South 9.2 mph - N/A   Clear
1:53 PM 46.9 °F - 21.0 °F 36% 29.80 in 10.0 mi South 13.8 mph 18.4 mph N/A   Clear
2:53 PM 50.0 °F - 19.9 °F 31% 29.78 in 10.0 mi SSW 15.0 mph 25.3 mph N/A   Clear
3:53 PM 48.9 °F - 19.9 °F 32% 29.78 in 10.0 mi SSW 15.0 mph 29.9 mph N/A   Clear
4:53 PM 48.9 °F - 18.0 °F 29% 29.78 in 10.0 mi SSW 17.3 mph 25.3 mph N/A   Clear
5:53 PM 46.9 °F - 21.0 °F 36% 29.80 in 10.0 mi South 16.1 mph 21.9 mph N/A   Clear
6:53 PM 45.0 °F 39.3 °F 21.9 °F 40% 29.82 in 10.0 mi SSW 11.5 mph 19.6 mph N/A   Clear
7:53 PM 41.0 °F 37.1 °F 16.0 °F 36% 29.84 in 10.0 mi West 5.8 mph - N/A   Clear
8:53 PM 39.0 °F 34.0 °F 21.9 °F 50% 29.86 in 10.0 mi WNW 6.9 mph - N/A   Clear
9:53 PM 36.0 °F 32.1 °F 21.0 °F 55% 29.88 in 10.0 mi NW 4.6 mph - N/A   Clear
10:53 PM 34.0 °F 28.8 °F 19.9 °F 56% 29.89 in 10.0 mi WNW 5.8 mph - N/A   Clear
11:53 PM 32.0 °F 26.4 °F 18.0 °F 56% 29.88 in 10.0 mi WNW 5.8 mph - N/A   Clear